Hourly Weather Roundup
Issued by NWS Central Illinois

Home | Current Version | Previous Version | Text Only | Print | Product List | Glossary On
Versions: 1 2 3 4 5 6 7 8 9 10 11 12 13 14 15 16 17 18 19 20 21 22 23 24 25 26 27 28 29 30 31 32 33 34 35 36 37 38 39 40 41 42 43 44 45 46 47 48 49 50
000
NZUS43 KILX 130110
HWRILX

AREA WEATHER ROUNDUP
NATIONAL WEATHER SERVICE, LINCOLN IL
700 PM CST FRI FEB 12 2016


CITY           SKY/WX    TMP DP  RH WIND       PRES   REMARKS
BLOOMINGTON    CLEAR     18   4  54 NW20      30.36R WCI   2
CHAMPAIGN      CLEAR     20   6  55 NW21G28   30.33R WCI   4
DANVILLE       PTCLDY    20   9  61 NW15G22   30.28R WCI   7
DECATUR        CLEAR     22   4  46 NW16G29   30.37R WCI   8
EFFINGHAM      PTCLDY    25  17  73 W10G17    30.39R WCI  15
FLORA          PTCLDY    27  15  62 NW15G23   30.39R WCI  15
GALESBURG      CLEAR     15   3  59 NW14G21   30.44R WCI   0
JACKSONVILLE   CLEAR     23   9  53 NW15G22   30.44R WCI  10
LACON          PTCLDY    16   2  53 NW17G24   30.41R WCI   0
LAWRENCEVILLE  PTCLDY    25  14  63 NW14      30.35R WCI  13
LITCHFIELD     CLEAR     23  10  59 NW18G28   30.42R WCI   8
$$


CITY           SKY/WX    TMP DP  RH WIND       PRES   REMARKS
LINCOLN        CLEAR     21   4  47 NW12G22   30.40R WCI   9
MACOMB         CLEAR     17   5  59 NW22G29   30.48R WCI   0
MATTOON        CLEAR     22   8  55 NW21      30.33R WCI   6
MT CARMEL AP   CLEAR     27  12  54 NW15G21   30.36R WCI  15
OLNEY-NOBLE AP PTCLDY    27  16  63 NW14      30.38R WCI  15
PARIS          PTCLDY    22  12  64 NW12G18   30.33R WCI  10
PEORIA         CLEAR     17   0  47 NW13G25   30.42R WCI   4
PONTIAC        PTCLDY    19   7  58 NW14      30.37R WCI   6
RANTOUL        PTCLDY    22   8  56 NW17      30.33R WCI   7
ROBINSON       CLEAR     24  15  70 W13       30.36R WCI  12
SPRINGFIELD    CLEAR     22   7  52 NW18G24   30.41R WCI   7
TAYLORVILLE    CLEAR     23  10  58 NW18G28   30.40R WCI   9
$$

...REGIONAL REPORTS...


CITY           SKY/WX    TMP DP  RH WIND       PRES   REMARKS
CHICAGO O`HARE PTCLDY    15  -4  42 NW20G35   30.32R WCI  -2
KANKAKEE       CLEAR     19   4  50 NW17G24   30.32R WCI   4
MOLINE         CLEAR     14   0  53 NW23G31   30.45R WCI  -5
MOUNT STERLING CLEAR     18   5  57 NW16G25   30.45R WCI   3
MOUNT VERNON   CLEAR     27  12  54 NW3       30.40R
PITTSFIELD     CLEAR     21   8  56 NW14      30.47R WCI   8
QUINCY         CLEAR     17   3  54 NW12      30.47R WCI   4
ROCKFORD       CLEAR     15  -4  42 N18G26    30.38R WCI  -2
$$


CITY           SKY/WX    TMP DP  RH WIND       PRES   REMARKS
BURLINGTON     CLEAR     15   3  59 NW17G26   30.48R WCI  -1
CEDAR RAPIDS   CLEAR     11   2  67 N14       30.48R WCI  -5
DES MOINES     CLOUDY    11   0  61 NW10      30.57R WCI  -3
KIRKSVILLE     CLEAR     17   4  56 NW7       30.51R WCI   8
OTTUMWA        CLEAR     12   3  67 NW20      30.53R WCI  -6
ST LOUIS       PTCLDY    27  13  55 NW13      30.44R WCI  16
$$


CITY           SKY/WX    TMP DP  RH WIND       PRES   REMARKS
TERRE HAUTE    PTCLDY    24  10  55 NW13      30.31R WCI  12
EVANSVILLE     CLOUDY    29  15  56 NW8G24    30.37R WCI  21
INDIANAPOLIS   FLURRIES  23  10  57 NW21      30.23R WCI   8
LAFAYETTE      CLEAR     19   6  57 NW12      30.28R WCI   7
MADISON        CLEAR      8  -8  48 NW12      30.37R WCI  -7
MILWAUKEE      CLEAR     11  -7  44 NW17G28   30.33R WCI  -6
$$





USA.gov is the U.S. government's official web portal to all federal, state and local government web resources and services.